Location: Chaville
(48.8057°N, 2.1886°E)
Time: 07:28:26
(UTC+00:00)

Daily predictions for brighter satellites

Satellite Brightness Start Highest point End
(mag) Time Altitude Azimuth Time Altitude Azimuth Time Altitude Azimuth
Cosmos 1110 Rocket 4.2 16:23:15 10° NNW 16:28:27 81° WSW 16:33:39 10° SSE
Cosmos 2333 Rocket 2.9 16:24:51 10° S 16:30:00 36° ESE 16:35:14 10° NE
Meteor 1-11 Rocket 4.5 16:24:48 10° N 16:30:10 33° ENE 16:35:30 10° SE
Cosmos 1933 4.4 16:29:58 10° SSW 16:33:51 47° WNW 16:37:46 10° N
SJ-7 4.5 16:29:51 10° SSE 16:34:01 65° ENE 16:38:09 10° N
Shenzhou-11 Module 4.2 16:34:49 10° SSW 16:36:37 16° SSE 16:38:25 10° ESE
RESURS DK-1 3.7 16:34:25 10° SSE 16:37:42 23° ESE 16:41:00 10° NE
Radarsat Rocket 4.1 16:32:50 10° SSE 16:39:06 87° WSW 16:44:59 10° NNW
ISS -3.7 16:36:41 10° WNW 16:40:02 65° NNE 16:43:23 10° E
Cosmos 2237 Rocket 3.7 16:36:32 10° SE 16:40:06 17° E 16:43:40 10° ENE
ATLAS 3B R/B 2.9 16:33:38 10° NW 16:40:21 79° SW 16:47:13 10° SSE
USA 267 3.6 16:34:24 10° SE 16:40:56 72° SW 16:47:30 10° WNW
NOSS 3-4 (A) 3.5 16:35:25 10° SSW 16:41:23 71° SE 16:47:46 10° NE
NOSS 3-4 (C) 3.5 16:35:32 10° SSW 16:41:30 71° SE 16:47:53 10° NE
Cosmos 2322 Rocket 3.3 16:38:26 10° WSW 16:43:45 42° NW 16:49:07 10° NNE
CZ-4B R/B 2.8 16:42:29 10° N 16:45:49 40° WNW 16:49:06 10° SW
Cosmos 1812 4.0 16:42:53 10° SE 16:45:51 21° E 16:48:50 10° NE
Cosmos 1844 4.1 16:41:30 10° NNW 16:47:12 71° WSW 16:52:47 10° SSE
YAOGAN 1 4.2 16:46:53 10° E 16:49:14 14° ENE 16:51:35 10° NNE
COBE Rocket 4.4 16:45:29 10° NNE 16:49:46 36° E 16:54:03 10° SSE
SL-16 R/B 3.5 16:44:43 10° WSW 16:49:52 35° NW 16:55:04 10° NNE
Iridium 82 4.4 16:48:31 10° S 16:52:03 83° E 16:55:37 10° N
Feng Yun 1-1 Rocket 4.1 16:48:59 10° SSE 16:54:19 66° ENE 16:59:41 10° N
Cosmos 2219 Rocket 2.4 16:51:22 10° S 16:56:49 55° ESE 17:02:19 10° NE
NOAA 12 4.4 16:52:04 10° SE 16:57:05 45° ENE 17:02:07 10° N
BREEZE-M R/B 3.2 16:51:33 10° WSW 16:58:21 89° SSE 17:01:16 15° ENE
CORIOLIS 4.2 16:54:47 10° SSE 17:00:08 62° ENE 17:05:31 10° N
Cosmos 1844 Rocket 4.0 16:56:20 10° NW 17:01:37 45° WSW 17:06:54 10° S
Cosmos 1733 Rocket 3.2 16:57:33 10° N 17:01:49 51° ENE 17:06:06 10° SSE
Cosmos 494 Rocket 4.3 16:56:36 10° SSW 17:01:51 71° WNW 17:07:08 10° NNE
Cosmos 1536 3.6 17:00:21 10° N 17:03:56 30° ENE 17:07:28 10° SE
PSLV R/B 3.9 17:01:08 10° NNE 17:05:21 79° ESE 17:09:29 10° S
SMAP 3.0 17:02:27 10° SSE 17:07:06 79° ENE 17:11:47 10° NNW
Cosmos 1269 Rocket 4.2 17:01:57 10° SSW 17:07:15 76° WNW 17:12:36 10° NNE
Cosmos 1500 3.4 17:03:41 10° N 17:07:21 46° ENE 17:10:59 10° SSE
Cosmos 1340 3.8 17:05:15 10° NNW 17:08:55 47° W 17:12:33 10° S
CZ-4 R/B 2.4 17:07:58 10° ESE 17:11:06 23° ENE 17:14:13 10° NNE
Cosmos 1943 Rocket 3.8 17:12:08 10° N 17:15:13 15° NNE 17:16:12 14° NE
H-2A R/B 2.6 17:11:41 10° SSE 17:15:24 86° ENE 17:19:06 10° NNW
ATLAS 2AS CENTAUR R/B 3.4 17:11:19 10° SW 17:19:16 65° NW 17:26:45 12° NE
Cosmos 304 Rocket 4.3 17:14:48 10° NNW 17:19:33 62° WSW 17:24:17 10° S
Lacrosse 5 rocket 2.1 17:15:41 10° SSW 17:19:40 38° SE 17:21:46 22° E
COSMOS 2428 2.7 17:16:41 10° SSW 17:22:21 82° ESE 17:27:49 11° NNE
CSL-04 Rocket 4.2 17:18:08 10° SE 17:22:47 33° ENE 17:27:28 10° N
YAOGAN 6 3.1 17:20:14 10° SE 17:23:27 34° ENE 17:26:43 10° N
Meteor 1-5 Rocket 4.2 17:18:53 10° NNW 17:24:31 89° W 17:29:57 10° S
SKYMED 2 4.3 17:23:37 19° NE 17:25:54 31° E 17:29:45 10° SSE
SL-4 R/B 1.9 17:25:19 10° WSW 17:29:04 73° SSE 17:31:03 28° ENE
Cosmos 292 Rocket 4.2 17:24:55 10° N 17:29:31 40° ENE 17:34:05 10° SE
Okean O Rocket 4.2 17:27:39 10° SSW 17:31:07 23° W 17:34:37 10° NW
SeaSat 1 3.8 17:31:15 19° NE 17:31:29 19° NE 17:34:57 10° N
Cosmos 2251 Rocket 3.6 17:27:03 10° S 17:32:14 56° ESE 17:36:13 17° NE
Cosmos 1092 Rocket 4.3 17:26:59 10° SSE 17:32:53 44° E 17:38:46 10° NNE
NOSS 0 Rocket 4.1 17:26:56 10° S 17:32:56 54° ESE 17:37:30 18° NE
ATLAS 5 CENTAUR R/B 1.9 17:34:09 10° SSW 17:35:55 27° SSE 17:35:55 27° SSE
Cosmos 2242 Rocket 3.8 17:32:20 10° SSE 17:36:43 48° E 17:40:14 15° NNE
Cosmos 921 Rocket 4.1 17:33:39 10° N 17:36:26 24° NE 17:36:26 24° NE
FengYun 1-2 T 4.1 17:33:43 10° SSE 17:39:07 63° ENE 17:44:34 10° N
Cosmos 1862 Rocket 3.4 17:35:16 10° S 17:39:35 80° E 17:44:00 10° NNE
COSMOS 2455 4.5 17:34:47 10° W 17:39:45 26° NNW 17:44:46 10° NNE
Cosmos 1703 Rocket 4.2 17:38:14 10° SSE 17:42:14 33° E 17:42:45 32° ENE
Okean-O 2.7 17:39:00 10° SSE 17:43:27 80° WSW 17:47:55 10° NNW
Genesis I 4.0 17:41:37 10° NNW 17:45:01 31° NE 17:45:01 31° NE
USA 215 3.6 17:44:09 22° NE 17:48:26 56° NNW 17:54:47 10° W
Cosmos 1666 2.5 17:48:25 10° N 17:52:09 63° ENE 17:55:51 10° SSE
NOAA 11 4.4 17:49:14 10° SE 17:54:23 45° ENE 17:59:35 10° N
Envisat 3.2 17:50:05 10° S 17:55:09 74° WSW 18:00:16 10° NNW
Cosmos 2278 Rocket 2.5 17:49:40 10° NNW 17:55:19 68° WSW 18:00:54 10° SSE
STARLINK-67 3.7 17:54:58 10° W 17:57:14 37° NW 17:57:14 37° NW
Cosmos 1867 4.3 17:54:54 10° NNW 17:59:52 33° NE 18:00:20 33° NE
Cosmos 2360 Rocket 4.1 17:59:12 10° W 18:03:46 24° NW 18:08:23 10° N
BREEZE-M DEB (TANK) 2.4 17:59:34 10° W 18:03:51 54° S 18:04:17 49° SSE
Cosmos 2369 Rocket 3.6 18:05:57 10° N 18:09:07 22° NNE 18:09:07 22° NNE
SL-16 R/B 3.0 18:05:48 10° SSE 18:09:56 31° ESE 18:09:56 31° ESE
Shenzhou-11 Module 4.0 18:09:03 10° WSW 18:10:38 21° SSW 18:10:38 21° SSW
Cosmos 1908 Rocket 3.7 18:08:32 10° NNW 18:12:58 76° W 18:17:19 10° S
Nadezhda 4 Rocket 4.3 18:07:10 10° SSW 18:13:28 67° WNW 18:19:47 10° N
COSMO-SKYMED 1 2.5 18:12:08 33° NNE 18:14:03 89° WNW 18:18:24 10° SSW
Cosmos 2333 Rocket 3.2 18:08:42 10° SW 18:14:11 45° NW 18:18:31 16° NNE
STARLINK-46 4.4 18:12:31 10° WSW 18:14:06 31° WSW 18:14:06 31° WSW
RESURS DK-1 3.4 18:11:35 10° SW 18:15:31 42° NW 18:17:10 28° N
Cosmos 1553 Rocket 4.1 18:09:57 10° N 18:16:08 51° ENE 18:22:20 10° SSE
ISS -2.5 18:13:33 10° WNW 18:16:41 37° SSW 18:17:00 36° SSW
Cosmos 1428 Rocket 4.4 18:13:43 10° S 18:19:45 61° E 18:23:49 22° NNE
Cosmos 1812 4.4 18:17:56 10° SW 18:21:27 33° WNW 18:24:36 12° N
Meteor 1-27 Rocket 4.4 18:15:49 10° SSW 18:21:27 57° WNW 18:27:14 10° N
Cosmos 2237 Rocket 2.2 18:17:41 10° SSW 18:23:24 85° WNW 18:25:48 37° NNE
YAOGAN 1 2.6 18:20:26 10° S 18:24:46 78° WSW 18:29:07 10° NNW
USA 116 4.3 18:24:33 36° NNE 18:26:51 80° ESE 18:32:05 10° S
BREEZE-M DEB (TANK) 3.4 18:23:51 10° W 18:27:29 31° SW 18:27:30 31° SW
USA 229 DEB 4.4 18:22:17 10° NW 18:28:48 37° NNE 18:29:29 36° NE
USA 229 4.4 18:22:24 10° NW 18:28:54 37° NNE 18:29:34 36° NE
Cosmos 2026 Rocket 3.8 18:30:01 10° S 18:36:05 88° ESE 18:40:53 17° N
Ariane Rocket 4.2 18:40:38 30° N 18:40:38 30° N 18:43:14 10° N
Cosmos 489 Rocket 4.5 18:32:36 10° NNW 18:38:49 59° ENE 18:38:49 59° ENE
Cosmos 2219 Rocket 3.7 18:36:07 10° WSW 18:41:05 31° NW 18:44:27 18° N
Okean 1-7 3.6 18:38:55 10° SSW 18:42:13 51° SSW 18:42:13 51° SSW
Meteor 1-18 Rocket 4.3 18:39:44 10° S 18:44:37 62° SSE 18:44:37 62° SSE
CZ-4 R/B 2.9 18:42:24 10° SSW 18:45:59 34° W 18:49:33 10° NNW
Cosmos 1417 Rocket 4.3 18:40:48 10° N 18:46:57 79° E 18:48:46 48° SSE
Cosmos 1980 4.4 18:48:23 10° SW 18:53:52 51° NW 18:55:38 38° N
Cosmos 2297 3.8 18:50:01 10° NNW 18:55:43 71° WSW 18:56:47 57° S
Lacrosse 5 rocket 2.9 18:54:43 10° WSW 18:57:26 34° W 18:57:26 34° W
Cosmos 1943 Rocket 3.4 18:54:49 10° NNW 18:57:45 30° N 18:57:45 30° N
SeaSat 1 4.0 19:11:03 28° NNW 19:11:03 28° NNW 19:13:22 10° NNW
SL-4 R/B 4.1 19:04:58 10° W 19:06:40 24° WNW 19:06:40 24° WNW
ATLAS 2AS CENTAUR R/B 4.2 19:04:49 10° WNW 19:11:48 31° NNW 19:14:11 27° NNE
USA 215 4.0 19:31:30 42° NNW 19:31:30 42° NNW 19:36:55 10° WNW
SL-16 R/B 4.0 19:49:16 10° SW 19:51:52 26° WSW 19:51:52 26° WSW
Cosmos 2369 Rocket 4.3 19:49:28 10° NNW 19:50:56 19° NNW 19:50:56 19° NNW
Cosmos 2237 Rocket 4.4 20:04:07 10° W 20:07:40 20° NW 20:07:40 20° NW
Cosmos 2344 4.3 20:00:31 10° NW 20:09:11 79° NNW 20:09:11 79° NNW
